STARLINK-35267, 65592

Orbit data source: Space-Track

STARLINK-35267, 65592 is a payload satellite owned by SpaceX/Seattle (US) in SSO that was launched on Sat, 13 Sep 2025 UTC via an FALCON 9 launch vehicle from the Air Force Eastern Test Range (AFETR). Payload-class satellites include a variety of spacecraft equipped with specific instruments for various scientific and technological missions. These include communications satellites like Starlink; space stations such as the ISS; scientific satellites like the Hubble; Earth observation satellites from companies like Planet Labs, Umbra, and HawkEye 360; GPS; miniature CubeSats for education and research; and military/defense satellites.

Loading next visibility...
Identifier
65592, 2025-207A
Orbit
SSO
Country
Flag of USUS
Related business
Manufacturer
SpaceX/Seattle
Mission
Operational Commercial Communications
Bus & Motor
STARLINK V2MO, Unknown motor
Mass
575 kg wet, ~530 kg dry
Launch date (UTC)
2025-09-13 (9 months ago)
Launch vehicle
FALCON 9
Launch site
Air Force Eastern Test Range (AFETR)
Object type
Payload
Rocket body
Debris
Shape & HBR
Box + 2 Pan, 17.7 m
Radar Cross Section
36.964 m², Large (>1 m²)

Expand to show TLE details & history
Last TLE update: 17 hours ago

TLE from 17 hours ago
0 STARLINK-35267
1 65592U 25207A   26166.42476821  .00002273  00000-0  16141-3 0  9998
2 65592  97.3567 234.0119 0001692 118.1723 241.9675 15.05655243 42957
Epoch: 2026-06-15T10:11Z
TLE epoch observation values (Epoch: 2026-06-15T10:11:39.973Z)
Latitude
-0.00007°
Longitude
177.38401°
Altitude
553.118 km
Speed
7.585 km/s
True Right ascension
15h 36m 02s
True Declination
0° 00' 00"
Sunlit
Object was in full shadow at epoch
Visualization orbit readout
Latitude
Unknown
Longitude
Unknown
Altitude
Unknown
Speed
Unknown
Apparent Right ascension
Unknown
Apparent Declination
Unknown
Sunlit
N/A
Visualization observer readout
Local Sidereal Time
13:37:13
Azimuth
Unknown
Elevation
Unknown
Doppler factor
Unknown
Orbital elements
Apogee altitude
547.65 km
Perigee altitude
545.306 km
Semi-major axis
6,924.615 km
Eccentricity
0.00017
Inclination
97.3567°
RAAN
234.0119°
Arg. of periapsis
118.1723°
True anomaly
241.95039°
Mean anomaly
241.9675°
Eccentric anomaly
241.95894°
Mean motion
3.7666 °/min
Orbital period
95.58 mins
BSTAR
0.00016141
Loading maneuver chart data...
Computing Atmospheric mass density...
Loading historical data...
Loading historical data...
Loading historical data...
Loading historical data...
Loading historical data...
Loading historical data...
Loading historical data...

Documentation

Showing up to 5 results
|